Retour au catalogue

O3B FM3

ActifCommunicationsMEO
NORAD 40079·PAYLOAD·🇱🇺 Luxembourg

Lancé Jul 10, 2014 depuis Guiana Space Centre

Loading…

Prochains Passages (prochaines 24 heures)

TLE

FraisSource: CelesTrak SupGP

Époque: Sep 14, 2026, 00:00 UTC

1 40079C 14038A   26257.00000000  .00000000  00000+0  00000+0 0  2573
2 40079   0.0486 354.1769 0003534 221.7640  41.2556  5.00115892    17

Suivez O3B FM3 en temps réel avec AllMySat

Download on the App Store